Date,TemperatureHighF,TemperatureAvgF,TemperatureLowF,DewpointHighF,DewpointAvgF,DewpointLowF,HumidityHigh,HumidityAvg,HumidityLow,PressureMaxIn,PressureMinIn,WindSpeedMaxMPH,WindSpeedAvgMPH,GustSpeedMaxMPH,PrecipitationSumIn
2013-5-1,82,69,53,42,19,-4,62,21,5,30.08,29.73,5,0,21,0.00
2013-5-2,80,68,56,6,2,-5,11,7,5,30.22,30.06,13,1,21,0.00
2013-5-3,89,68,43,28,9,-6,22,11,5,30.06,29.76,10,2,20,0.00
2013-5-4,83,69,54,37,30,22,37,24,13,29.77,29.60,10,0,21,0.00
2013-5-5,61,56,51,45,43,38,73,62,50,29.82,29.67,10,0,22,0.00
2013-5-6,63,55,50,51,45,42,95,71,49,29.88,29.78,0,0,0,0.06
2013-5-7,66,56,47,44,41,37,84,60,34,29.92,29.85,12,0,25,0.00
2013-5-8,73,60,49,47,44,40,83,58,32,29.97,29.90,7,1,16,0.00
2013-5-9,80,64,48,50,45,41,80,55,26,30.00,29.91,10,1,24,0.00
2013-5-10,88,74,61,50,46,37,61,41,17,30.03,29.93,6,1,18,0.00
2013-5-11,92,79,58,48,43,36,54,31,15,30.07,29.96,6,1,16,0.00
2013-5-12,96,81,61,52,43,33,56,31,11,30.08,29.91,10,2,15,0.00
2013-5-13,97,82,64,46,40,33,51,25,12,29.98,29.86,9,1,20,0.00
2013-5-14,87,76,60,43,34,19,41,24,9,29.90,29.80,6,0,15,0.00
2013-5-15,89,75,0,46,40,33,48,28,15,29.89,29.80,12,1,19,0.00
2013-5-16,81,69,60,42,39,35,52,34,21,29.84,29.77,12,0,19,0.00
2013-5-17,77,66,57,46,41,34,67,42,24,29.86,29.78,16,2,23,0.00
2013-5-18,82,70,56,37,31,20,45,26,13,29.92,29.83,12,1,24,0.00
2013-5-19,85,73,60,39,33,25,41,24,16,29.93,29.83,8,0,21,0.00
2013-5-20,87,73,53,40,31,23,47,24,11,29.98,29.85,6,1,17,0.00
2013-5-21,89,73,55,49,36,29,46,28,14,29.89,29.74,2,0,18,0.00
2013-5-22,76,65,54,41,30,18,41,28,12,29.76,29.67,19,1,23,0.00
2013-5-23,74,62,50,31,22,14,31,22,11,29.83,29.71,12,0,26,0.00
2013-5-24,79,64,49,44,31,20,50,31,13,29.87,29.80,12,1,21,0.00
2013-5-25,78,66,55,48,40,27,63,41,15,29.87,29.82,8,0,23,0.00
2013-5-26,76,64,55,39,37,34,52,38,25,29.91,29.85,0,0,0,0.00
2013-5-27,80,69,58,44,37,31,56,33,18,29.89,29.78,8,0,23,0.00
2013-5-28,73,66,58,49,46,36,67,49,34,29.80,29.67,6,1,14,0.00
2013-5-29,81,71,61,47,42,31,52,35,24,29.80,29.67,0,0,0,0.00
2013-5-30,92,75,59,43,37,29,51,28,11,29.83,29.72,11,1,19,0.00
2013-5-31,95,79,62,43,35,28,33,22,11,29.87,29.78,5,0,13,0.00